Volver al catálogo

STARLINK-34749

ActivoComunicacionesSSO
NORAD 65675·PAYLOAD·🇺🇸 United States

Lanzado Sep 19, 2025 desde Vandenberg Space Force Base

Loading…

Próximos Pases (próximas 24 horas)

TLE

ActualizadoSource: CelesTrak SupGP

Época: Sep 15, 2026, 03:56 UTC

1 65675C 25211Z   26258.16437500 -.00021574  00000+0 -67009-3 0  2582
2 65675  97.2831 298.5001 0001218  93.4080  39.4828 15.33432303    14

Sigue STARLINK-34749 en tiempo real con AllMySat

Download on the App Store